Meath Environmental Platform

Observations for Trim Market St

Time AQI Temp °C Hum % Pres Pa CO μg/m³ H₂S μg/m³ NO μg/m³ NO₂ μg/m³ O₃ μg/m³ SO₂ μg/m³ PM1 μg/m³ PM2.5 μg/m³ PM10 μg/m³
Friday 21 August 2026
09:45 2 29.1 33 65,815 0 0 1.27 16.66 76.08 0 0 3.19 3.5
09:44 2 29.3 33 65,797 0 0 1.26 15.77 75.66 0 0 3.18 3.5
09:43 2 29.4 32 65,774 0 0 1.15 26.29 102.74 0 0 3.2 3.52
09:42 2 29.5 33 65,772 0 0 1.15 16.31 85.85 0 0 2.66 2.93
09:41 2 29.6 33 65,799 0 0 1.1 13.97 92.74 0 0 2.65 2.91
09:38 2 30 32 65,839 0 0 1.33 14.44 84.11 0 0 2.66 2.93
09:37 2 30.1 32 65,860 0 0 1.32 3.63 66.49 0 0 3.22 3.54
09:36 2 30.2 33 65,855 0 0 1.34 12.95 77.51 0 0 2.66 2.92
09:35 2 30.4 33 65,872 0 0 1.33 10.27 75.81 0 0 2.63 2.89
09:33 2 30.5 34 65,884 0 0 1.43 8.01 65.23 0 0 3.15 3.46
09:32 2 30.5 34 65,872 0 0 1.5 5.08 70.44 0 1.43 5.29 5.84
09:30 2 30.5 34 65,898 0.05 0 1.54 25.5 85.51 0 0.71 3.15 3.46
09:29 2 30.4 34 65,908 0 0 1.56 20.71 59.79 0 0 3.13 3.44
09:28 2 30.3 34 65,900 0.04 0 1.52 16.01 67.75 0 0.71 3.68 4.04
09:25 2 30.2 35 65,888 0.26 0 2.26 15.23 72.77 0 0 2.56 2.81
09:21 2 29.9 35 65,874 0.11 0 1.82 19.83 67.37 0 0 3.1 3.35
09:16 2 29.2 36 65,815 0.26 0 1.51 15.78 62.24 0 0 3.03 3.4
09:11 2 28.6 38 65,738 0.25 0 1.52 15.66 59.25 0 0.71 4.05 4.45
09:10 2 28.4 38 65,748 0.25 0 1.52 18.79 57.75 0 0 2.96 3.25
09:08 2 28.1 38 65,730 0.72 0 1.54 14.37 60.71 0 0 2.96 3.26